Weather History for Wayne, NE

Change the Weather History Date:

Thursday, October 4, 2012

  Actual Average (KOFK) Record (KOFK)
Temperature  
Mean Temperature 42 °F 56 °F  
Max Temperature 53 °F 69 °F 92 °F (1938)
Min Temperature 30 °F 43 °F 25 °F (1935)
Degree Days  
Heating Degree Days 24 10  
Month to date heating degree days 38  
Since 1 July heating degree days 180  
Cooling Degree Days 0 1  
Month to date cooling degree days 4  
Year to date cooling degree days 910  
Moisture  
Dew Point 33 °F    
Average Humidity 62    
Maximum Humidity 82    
Minimum Humidity 43    
Precipitation  
Precipitation 0.00 in 0.08 in 1.98 in (2005)
Month to date precipitation 0.34  
Year to date precipitation 23.56  
Snow  
Snow 0.00 in 0.00 in - ()
Month to date snowfall 0.0  
Since 1 July snowfall T  
Snow Depth -    
Sea Level Pressure  
Sea Level Pressure 30.21 in    
Wind  
Wind Speed 18 mph (NW)    
Max Wind Speed 28 mph    
Max Gust Speed 39 mph    
Visibility 10 miles    
Events Thunderstorm    
T = Trace of Precipitation, MM = Missing Value Source: NWS Daily Summary

Daily Weather History Graph

Daily Weather History Graph

Search for Another Location

Airport:

Trip Planner

Search our weather history database for the weather conditions in past years. The results will help you decide how hot, cold, wet, or windy it might be!

Date:

Astronomy

Oct. 04, 2012 Rise Set
Actual Time 7:28 AM CDT 7:03 PM CDT
Civil Twilight 7:00 AM CDT 7:31 PM CDT
Nautical Twilight 6:28 AM CDT 8:03 PM CDT
Astronomical Twilight 5:55 AM CDT 8:36 PM CDT
Moon 9:34 PM CDT (10/4) 11:52 AM CDT (10/4)
Length of Visible Light 12h 30m
Length of Day
11h 34m
Waning Gibbous, 82% of the Moon is Illuminated
Oct 4
Waning Gibbous
Oct 8
Last Quarter
Oct 15
New
Oct 21
First Quarter
Oct 29
Full

Hourly Weather History & Observations

Time (CDT) Temp. Windchill Dew Point Humidity Pressure Visibility Wind Dir Wind Speed Gust Speed Precip Events Conditions
12:15 AM 51.4 °F - 41.0 °F 68% 30.01 in 10.0 mi NW 17.3 mph 26.5 mph N/A   Clear
12:35 AM 51.4 °F - 41.0 °F 68% 30.02 in 10.0 mi NW 17.3 mph 23.0 mph N/A   Clear
12:55 AM 51.8 °F - 41.0 °F 67% 30.02 in 10.0 mi NW 24.2 mph 29.9 mph N/A   Clear
1:15 AM 51.8 °F - 41.2 °F 67% 30.02 in 10.0 mi NW 18.4 mph 28.8 mph N/A   Clear
1:35 AM 51.3 °F - 41.4 °F 69% 30.04 in 10.0 mi NW 21.9 mph 32.2 mph N/A   Scattered Clouds
1:55 AM 51.3 °F - 41.7 °F 70% 30.03 in 10.0 mi NW 25.3 mph 39.1 mph N/A   Mostly Cloudy
2:15 AM 49.3 °F - 41.0 °F 73% 30.05 in 10.0 mi NW 18.4 mph 26.5 mph N/A   Scattered Clouds
2:35 AM 48.2 °F - 41.0 °F 76% 30.06 in 10.0 mi NW 15.0 mph 29.9 mph N/A   Clear
2:55 AM 47.3 °F - 40.8 °F 78% 30.07 in 10.0 mi NW 19.6 mph 31.1 mph N/A   Scattered Clouds
3:15 AM 47.7 °F - 40.5 °F 76% 30.09 in 10.0 mi NW 26.5 mph 29.9 mph N/A   Overcast
3:35 AM 46.8 °F - 39.7 °F 77% 30.09 in 10.0 mi NW 18.4 mph 25.3 mph N/A   Overcast
3:55 AM 46.2 °F 39.3 °F 38.7 °F 75% 30.12 in 10.0 mi NW 17.3 mph 25.3 mph N/A   Overcast
4:15 AM 45.3 °F 38.4 °F 37.4 °F 74% 30.09 in 10.0 mi NW 16.1 mph 27.6 mph N/A Thunderstorm Overcast
4:35 AM 45.0 °F 38.2 °F 37.2 °F 74% 30.10 in 10.0 mi NW 15.0 mph 25.3 mph N/A   Overcast
4:55 AM 45.0 °F 36.0 °F 36.9 °F 73% 30.12 in 10.0 mi NW 25.3 mph 29.9 mph N/A   Overcast
5:15 AM 44.2 °F 35.7 °F 35.6 °F 72% 30.12 in 10.0 mi NW 21.9 mph 32.2 mph N/A   Overcast
5:35 AM 42.8 °F 33.1 °F 35.1 °F 74% 30.13 in 10.0 mi NNW 25.3 mph 32.2 mph N/A   Scattered Clouds
5:55 AM 43.2 °F 34.0 °F 35.2 °F 74% 30.15 in 10.0 mi NNW 23.0 mph 28.8 mph N/A   Mostly Cloudy
6:15 AM 43.3 °F 35.8 °F 35.2 °F 73% 30.16 in 10.0 mi NNW 16.1 mph 26.5 mph N/A   Overcast
6:35 AM 43.7 °F 35.7 °F 35.6 °F 73% 30.17 in 10.0 mi NNW 18.4 mph 23.0 mph N/A   Overcast
6:55 AM 43.7 °F 35.4 °F 34.5 °F 70% 30.18 in 10.0 mi NW 19.6 mph 27.6 mph N/A   Overcast
7:15 AM 43.5 °F 35.8 °F 34.2 °F 70% 30.19 in 10.0 mi NNW 17.3 mph 29.9 mph N/A   Mostly Cloudy
7:35 AM 43.3 °F 36.1 °F 34.3 °F 71% 30.18 in 10.0 mi NNW 15.0 mph 21.9 mph N/A   Mostly Cloudy
7:55 AM 43.2 °F 34.0 °F 33.8 °F 70% 30.20 in 10.0 mi NNW 23.0 mph 32.2 mph N/A   Mostly Cloudy
8:15 AM 42.8 °F 34.5 °F 33.8 °F 70% 30.20 in 10.0 mi NNW 18.4 mph 31.1 mph N/A   Mostly Cloudy
8:35 AM 42.6 °F 32.6 °F 33.3 °F 69% 30.21 in 10.0 mi NNW 26.5 mph 36.8 mph N/A   Mostly Cloudy
8:55 AM 42.8 °F 33.1 °F 33.3 °F 69% 30.21 in 10.0 mi NNW 25.3 mph 32.2 mph N/A   Overcast
9:15 AM 43.3 °F 34.7 °F 33.1 °F 67% 30.22 in 10.0 mi NW 20.7 mph 29.9 mph N/A   Overcast
9:35 AM 44.2 °F 35.9 °F 33.1 °F 65% 30.22 in 10.0 mi NW 20.7 mph 33.4 mph N/A   Overcast
9:55 AM 44.8 °F 36.4 °F 33.1 °F 64% 30.23 in 10.0 mi NNW 21.9 mph 29.9 mph N/A   Overcast
10:15 AM 45.7 °F 36.6 °F 32.4 °F 60% 30.23 in 10.0 mi NNW 27.6 mph 34.5 mph N/A   Mostly Cloudy
10:35 AM 46.9 °F - 32.4 °F 57% 30.23 in 10.0 mi NNW 27.6 mph 34.5 mph N/A   Scattered Clouds
10:55 AM 47.7 °F - 32.4 °F 55% 30.24 in 10.0 mi NNW 25.3 mph 38.0 mph N/A   Scattered Clouds
11:15 AM 48.6 °F - 32.2 °F 53% 30.25 in 10.0 mi NNW 23.0 mph 35.7 mph N/A   Scattered Clouds
11:35 AM 48.4 °F - 32.2 °F 54% 30.25 in 10.0 mi NW 24.2 mph 31.1 mph N/A   Mostly Cloudy
11:55 AM 50.2 °F - 32.0 °F 50% 30.25 in 10.0 mi NNW 23.0 mph 32.2 mph N/A   Scattered Clouds
12:15 PM 50.2 °F - 32.0 °F 50% 30.26 in 10.0 mi NNW 23.0 mph 34.5 mph N/A   Scattered Clouds
12:35 PM 51.1 °F - 32.0 °F 48% 30.28 in 10.0 mi NNW 21.9 mph 31.1 mph N/A   Scattered Clouds
12:55 PM 51.4 °F - 32.0 °F 47% 30.28 in 10.0 mi NNW 23.0 mph 34.5 mph N/A   Scattered Clouds
1:35 PM 52.5 °F - 32.0 °F 46% 30.28 in 10.0 mi NW 16.1 mph 26.5 mph N/A   Scattered Clouds
1:55 PM 52.9 °F - 31.6 °F 44% 30.27 in 10.0 mi NNW 18.4 mph 25.3 mph N/A   Scattered Clouds
2:15 PM 52.2 °F - 32.2 °F 47% 30.27 in 10.0 mi NW 17.3 mph 28.8 mph N/A   Scattered Clouds
2:35 PM 53.1 °F - 32.0 °F 45% 30.27 in 10.0 mi NW 17.3 mph 23.0 mph N/A   Scattered Clouds
2:55 PM 53.1 °F - 31.8 °F 44% 30.26 in 10.0 mi NW 16.1 mph 26.5 mph N/A   Clear
3:15 PM 52.5 °F - 31.8 °F 45% 30.26 in 10.0 mi NW 15.0 mph 24.2 mph N/A   Clear
3:35 PM 52.9 °F - 31.6 °F 44% 30.26 in 10.0 mi NNW 19.6 mph 25.3 mph N/A   Clear
3:55 PM 53.2 °F - 31.3 °F 43% 30.27 in 10.0 mi NW 17.3 mph 20.7 mph N/A   Scattered Clouds
4:15 PM 52.7 °F - 31.1 °F 44% 30.27 in 10.0 mi NW 16.1 mph 23.0 mph N/A   Scattered Clouds
4:35 PM 53.1 °F - 31.6 °F 44% 30.27 in 10.0 mi NW 16.1 mph 26.5 mph N/A   Scattered Clouds
4:55 PM 52.9 °F - 30.9 °F 43% 30.27 in 10.0 mi NNW 17.3 mph 23.0 mph N/A   Clear
5:15 PM 53.2 °F - 30.9 °F 43% 30.27 in 10.0 mi NNW 16.1 mph 19.6 mph N/A   Clear
5:55 PM 51.8 °F - 30.9 °F 45% 30.27 in 10.0 mi North 17.3 mph 20.7 mph N/A   Clear
6:15 PM 50.5 °F - 30.7 °F 47% 30.27 in 10.0 mi NNW 15.0 mph - N/A   Clear
6:35 PM 49.1 °F - 30.7 °F 49% 30.27 in 10.0 mi North 10.4 mph - N/A   Clear
6:55 PM 48.2 °F - 30.6 °F 51% 30.27 in 10.0 mi North 13.8 mph - N/A   Clear
7:15 PM 47.3 °F - 30.2 °F 52% 30.28 in 10.0 mi North 10.4 mph - N/A   Clear
7:35 PM 45.5 °F 43.2 °F 30.0 °F 55% 30.28 in 10.0 mi North 4.6 mph - N/A   Clear
7:55 PM 43.7 °F 40.3 °F 29.8 °F 58% 30.29 in 10.0 mi NNW 5.8 mph - N/A   Clear
8:15 PM 41.4 °F 36.8 °F 29.1 °F 62% 30.29 in 10.0 mi North 6.9 mph - N/A   Clear
8:35 PM 40.1 °F 35.3 °F 28.4 °F 63% 30.29 in 10.0 mi North 6.9 mph - N/A   Clear
8:55 PM 39.6 °F 35.4 °F 28.4 °F 64% 30.30 in 10.0 mi NNW 5.8 mph - N/A   Clear
9:15 PM 38.8 °F 36.5 °F 28.2 °F 66% 30.30 in 10.0 mi NW 3.5 mph - N/A   Clear
9:35 PM 36.5 °F 33.9 °F 27.9 °F 71% 30.31 in 10.0 mi NW 3.5 mph - N/A   Clear
9:55 PM 34.9 °F - 26.8 °F 72% 30.31 in 10.0 mi Calm Calm - N/A   Clear
10:15 PM 32.7 °F - 25.3 °F 74% 30.32 in 10.0 mi Calm Calm - N/A   Clear
10:35 PM 31.6 °F - 24.8 °F 76% 30.32 in 10.0 mi Calm Calm - N/A   Clear
10:55 PM 31.8 °F - 25.2 °F 76% 30.34 in 10.0 mi Calm Calm - N/A   Clear
11:15 PM 30.4 °F - 25.3 °F 82% 30.34 in 10.0 mi Calm Calm - N/A   Clear
11:35 PM 30.6 °F 25.8 °F 25.0 °F 80% 30.34 in 10.0 mi SSW 4.6 mph - N/A   Clear
11:55 PM 30.6 °F - 25.7 °F 82% 30.33 in 10.0 mi Calm Calm - N/A   Clear